sat.trackr.live / text

‹ back to catalog

STARLINK-33774

NORAD 63721 · 2025-087AA

PAYLOAD ACTIVE UNKNOWN

§ Identity

Operator
Country
US
Launch date
2025-04-28
Launch site
AFWTR
Launch vehicle
Mass (kg)
RCS (m²)

Purposes: comms

External: N2YO · Heavens-Above · Gunter

§ Orbital elements

Epoch: 2026-05-24T22:15:08.137728Z

Period
94.01 min
Inclination
53.1586°
Eccentricity
0.0001886
Mean motion
15.31712565 rev/d
Perigee alt
469.4 km
Apogee alt
472.0 km
Semi-major
6,848.8 km
B*
5.0133e-4
RAAN
225.3166°
Arg perigee
87.1995°
Mean anomaly
272.9222°
Rev number
6,087

§ Raw data

STARLINK-337741 63721U 25087AA  26144.92717752  .00015230  00000+0  50133-3 0  99932 63721  53.1586 225.3166 0001886  87.1995 272.9222 15.31712565 60879

JSON: /api/v1/satellites/63721 · /tle

For live sub-satellite position, see the globe view (requires WebGL).

§ Visibility from observer

Set your observer location to see the next 7 days of passes ≥ 10°. The values pass through the URL so the page stays shareable.

No JS? Fill the form by hand. The geolocation button needs JavaScript.